Flag for Germany Weather past 2 weeks in Weinheim, Baden-Württemberg, Germany

Now
36 °F

Light rain. Passing clouds.


Feels Like: 29 °F
Forecast: 30 / 38 °F
Wind: 8 mph from Southwest

Location: Baden Wurttemberg - Neuostheim

Current Time: Feb 1, 2015 at 7:22:36 PM

Latest Report: Feb 1, 2015 at 6:50 PM


Visibility: N/A

Pressure: 29.39 "Hg

Humidity: 87%

Dew point: 32 °F

Location of WeinheimLocation

Historic Weather in Weinheim — Graph

°F

Weinheim temperature yesterday

Maximum temperature yesterday: 39 °F (at 2:50 PM)
Minimum temperature yesterday: 34 °F (at 7:20 AM)
Average temperature yesterday: 36 °F

Past Weeks' High & Low Weather Summary

 TemperatureHumidityPressure
High43 °F (Jan 27, 12:20 PM)100% (Jan 18, 7:50 AM)30.45 "Hg (Jan 18, 7:50 AM)
Low28 °F (Jan 19, 5:20 AM)66% (Jan 27, 12:20 PM)28.82 "Hg (Jan 30, 5:20 AM)
Average36 °F86%29.80 "Hg
* Reported Jan 17 5:20 PM — Feb 1 5:50 PM, Weinheim, Weather by CustomWeather, © 2014

Note: Actual official high and low records may vary slightly from our data, if they occured in-between our weather recording intervals... More about our weather records

Advertising

Weinheim weather history for previous 24 hours

 ConditionsComfort  
Time TempWeatherWind HumidityBarometerVisibility
5:50 PM
Feb 1
37 °FMostly cloudy.8 mph81%29.36 "HgN/A
5:20 PM37 °FMostly cloudy.3 mph87%29.36 "HgN/A
4:50 PM37 °FMore clouds than sun.6 mph87%29.36 "HgN/A
4:20 PM36 °FPartly sunny.5 mph93%29.33 "HgN/A
3:50 PM36 °FPartly sunny.3 mph93%29.33 "Hg6 mi
3:20 PM36 °FPartly sunny.7 mph93%29.33 "Hg6 mi
2:50 PM36 °FBroken clouds.8 mph87%29.33 "Hg6 mi
2:20 PM36 °FLight rain. Overcast.7 mph87%29.30 "Hg6 mi
1:50 PM36 °FLight snow. Partly sunny.7 mph87%29.30 "Hg6 mi
1:20 PM37 °FPartly sunny.8 mph75%29.30 "HgN/A
12:50 PM39 °FPartly sunny.7 mph70%29.30 "HgN/A
12:20 PM37 °FPartly sunny.7 mph75%29.30 "HgN/A
11:50 AM37 °FBroken clouds.7 mph75%29.30 "HgN/A
11:20 AM37 °FMore clouds than sun.5 mph81%29.30 "HgN/A
10:50 AM36 °FPartly sunny.6 mph87%29.27 "HgN/A
10:20 AM36 °FMostly cloudy.3 mph81%29.27 "HgN/A
9:50 AM36 °FBroken clouds.3 mph81%29.27 "HgN/A
9:20 AM36 °FPartly sunny.3 mph81%29.24 "HgN/A
8:50 AM34 °FPartly sunny.6 mph87%29.24 "HgN/A
8:20 AM34 °FMostly cloudy.7 mph87%29.24 "HgN/A
7:50 AM34 °FPartly cloudy.7 mph93%29.21 "HgN/A
7:20 AM34 °FLight snow. Overcast.6 mph93%29.21 "HgN/A
9:50 PM
Jan 31
36 °FPassing clouds.3 mph87%29.18 "HgN/A
9:20 PM36 °FPassing clouds.3 mph87%29.15 "HgN/A
8:50 PM36 °FPassing clouds.5 mph93%29.15 "HgN/A
8:20 PM36 °FPassing clouds.6 mph93%29.15 "HgN/A
7:50 PM36 °FOvercast.6 mph93%29.15 "HgN/A
7:20 PM36 °FPassing clouds.7 mph93%29.12 "HgN/A
Weather by CustomWeather, © 2014

See weather overviewHow to use our weather pages